This is the latest recevied weather packets stored in our database for station/object VE3CGR-6. If no packets are shown the sender has not sent any weather packets the latest 10 day(s).
| Time | Temp. | Humidity | Pressure | Rain* | Wind** | Luminosity | Snow |
|---|---|---|---|---|---|---|---|
| 1787876416 | 20.56° C | 78% | 1014 hPa | 0 mm | - | - | - |
| 1787875816 | 20.56° C | 78% | 1013.8 hPa | 0 mm | - | - | - |
| 1787875216 | 21.11° C | 78% | 1013.8 hPa | 0 mm | - | - | - |
| 1787874616 | 21.11° C | 78% | 1013.6 hPa | 0 mm | - | - | - |
| 1787874016 | 21.11° C | 78% | 1013.6 hPa | 0 mm | - | - | - |
| 1787873416 | 21.67° C | 77% | 1013.4 hPa | 0 mm | - | - | - |
| 1787872818 | 21.67° C | 76% | 1013.3 hPa | 0 mm | - | - | - |
| 1787872218 | 21.67° C | 75% | 1013.3 hPa | 0 mm | - | - | - |
| 1787871618 | 22.22° C | 73% | 1013.3 hPa | 0 mm | - | - | - |
| 1787871018 | 22.78° C | 72% | 1013.4 hPa | 0 mm | - | - | - |
| 1787870418 | 22.78° C | 73% | 1013.3 hPa | 0 mm | - | - | - |
| 1787869818 | 22.78° C | 74% | 1013.2 hPa | 0 mm | - | - | - |
| 1787869218 | 22.78° C | 73% | 1013.3 hPa | 0 mm | - | - | - |
| 1787868618 | 23.33° C | 73% | 1013.1 hPa | 0 mm | - | - | - |
| 1787868018 | 23.33° C | 73% | 1013.1 hPa | 0 mm | - | - | - |
| 1787867418 | 23.89° C | 73% | 1013.1 hPa | 0 mm | - | - | - |
| 1787866818 | 23.89° C | 73% | 1013 hPa | 0 mm | - | - | - |
| 1787866218 | 23.89° C | 73% | 1012.9 hPa | 0 mm | - | - | - |
| 1787865618 | 23.33° C | 73% | 1012.8 hPa | 0 mm | - | - | - |
| 1787865016 | 23.89° C | 71% | 1012.9 hPa | 0 mm | - | - | - |
| 1787864418 | 23.89° C | 73% | 1012.8 hPa | 0 mm | - | - | - |
| 1787863818 | 23.89° C | 70% | 1012.8 hPa | 0 mm | - | - | - |
| 1787863218 | 24.44° C | 68% | 1012.6 hPa | 0 mm | - | - | - |
| 1787862618 | 24.44° C | 67% | 1012.5 hPa | 0 mm | - | - | - |
| 1787862018 | 24.44° C | 67% | 1012.4 hPa | 0 mm | - | - | - |
* Rain latest hour (hover to see other rain measurements)
** Current wind speed in m/s (hover to see current wind gust speed)